Big Bear Station Historical Data
Daily Summary for March 15, 2017 Units:  English    Metric   Both
« Previous Day
Next Day »
Daily Weekly Monthly Yearly Custom
  High: Low: Average:
Temperature: 63.3 °F 35.4 °F 51.3 °F
Dew Point: 38.3 °F 26.4 °F 33.3 °F
Humidity: 86 % 26 % 55 %
Wind Speed: 7.8 mph 0.0 mph 1.9 mph
Wind Gust: -999.0 mph - -
Wind:- - SW
Pressure: 30.36 in 30.31 in -
Precipitation: 0.00 in    
Historical Graphs
 
 
Tabular Data for March 15, 2017
Time Temperature Dew Point Pressure Wind Wind Speed Wind Gust Humidity Rainfall Rate (Hourly)
08:50 35.4 °F 31.6 °F 30.34 in Calm   -999.0 mph 86 % 0 in
09:06 36.3 °F 32.5 °F 30.34 in Calm   -999.0 mph 86 % 0 in
09:21 37.2 °F 33.1 °F 30.35 in Calm   -999.0 mph 85 % 0 in
09:36 39.0 °F 34.3 °F 30.35 in Calm   -999.0 mph 83 % 0 in
09:51 43.3 °F 36.6 °F 30.35 in Calm   -999.0 mph 77 % 0 in
10:06 46.2 °F 35.5 °F 30.35 in West 1.7 mph -999.0 mph 66 % 0 in
10:22 50.2 °F 33.2 °F 30.35 in WNW 2.2 mph -999.0 mph 52 % 0 in
10:37 53.1 °F 33.4 °F 30.35 in WNW 1.7 mph -999.0 mph 47 % 0 in
10:52 56.1 °F 32.7 °F 30.35 in West 1.7 mph -999.0 mph 41 % 0 in
11:07 59.5 °F 26.4 °F 30.35 in NNW 2.7 mph -999.0 mph 28 % 0 in
11:22 60.4 °F 28.8 °F 30.36 in SSE 2.2 mph -999.0 mph 30 % 0 in
11:38 60.3 °F 30.3 °F 30.36 in WNW 1.1 mph -999.0 mph 32 % 0 in
11:53 62.8 °F 27.4 °F 30.36 in Calm   -999.0 mph 26 % 0 in
12:08 62.4 °F 29.7 °F 30.36 in NNW 5.8 mph -999.0 mph 29 % 0 in
12:24 63.3 °F 29.6 °F 30.35 in ESE 1.7 mph -999.0 mph 28 % 0 in
12:39 63.1 °F 31.2 °F 30.35 in East 2.7 mph -999.0 mph 30 % 0 in
12:54 61.5 °F 31.4 °F 30.35 in NW 6.8 mph -999.0 mph 32 % 0 in
13:09 61.2 °F 31.9 °F 30.34 in NNW 1.7 mph -999.0 mph 33 % 0 in
13:25 60.3 °F 31.8 °F 30.34 in WNW 7.8 mph -999.0 mph 34 % 0 in
13:40 61.5 °F 33.6 °F 30.34 in NW 5.8 mph -999.0 mph 35 % 0 in
13:55 61.9 °F 33.2 °F 30.33 in North 2.2 mph -999.0 mph 34 % 0 in
14:10 63.3 °F 30.5 °F 30.33 in WSW 3.7 mph -999.0 mph 29 % 0 in
14:26 61.9 °F 30.1 °F 30.32 in NW 6.8 mph -999.0 mph 30 % 0 in
14:41 62.2 °F 29.5 °F 30.32 in SSW 5.3 mph -999.0 mph 29 % 0 in
14:56 61.9 °F 29.3 °F 30.32 in South 3.2 mph -999.0 mph 29 % 0 in
15:11 60.8 °F 32.2 °F 30.32 in NE 5.3 mph -999.0 mph 34 % 0 in
15:27 61.0 °F 32.4 °F 30.32 in SSW 2.2 mph -999.0 mph 34 % 0 in
15:42 60.6 °F 32.8 °F 30.32 in NNE 1.7 mph -999.0 mph 35 % 0 in
16:13 59.9 °F 34.2 °F 30.32 in SSW 2.7 mph -999.0 mph 38 % 0 in
16:28 58.6 °F 34.3 °F 30.32 in NW 2.2 mph -999.0 mph 40 % 0 in
16:43 58.6 °F 33.1 °F 30.31 in ESE 3.2 mph -999.0 mph 38 % 0 in
16:58 58.5 °F 33.6 °F 30.31 in South 3.2 mph -999.0 mph 39 % 0 in
17:14 57.9 °F 33.7 °F 30.31 in South 1.1 mph -999.0 mph 40 % 0 in
17:29 59.4 °F 35.1 °F 30.31 in South 2.2 mph -999.0 mph 40 % 0 in
17:44 57.2 °F 36.0 °F 30.31 in West 2.2 mph -999.0 mph 45 % 0 in
18:00 55.8 °F 34.8 °F 30.31 in WNW 2.2 mph -999.0 mph 45 % 0 in
18:15 54.7 °F 35.4 °F 30.31 in Calm   -999.0 mph 48 % 0 in
18:30 53.2 °F 35.5 °F 30.32 in SSW 1.7 mph -999.0 mph 51 % 0 in
18:46 52.0 °F 37.2 °F 30.32 in Calm   -999.0 mph 57 % 0 in
19:01 50.9 °F 38.3 °F 30.32 in South 2.7 mph -999.0 mph 62 % 0 in
19:16 48.7 °F 38.2 °F 30.31 in South 1.7 mph -999.0 mph 67 % 0 in
19:31 47.8 °F 37.8 °F 30.32 in Calm   -999.0 mph 68 % 0 in
19:46 46.4 °F 37.9 °F 30.32 in South 2.2 mph -999.0 mph 72 % 0 in
20:02 45.1 °F 37.3 °F 30.32 in Calm   -999.0 mph 74 % 0 in
20:17 43.9 °F 36.8 °F 30.32 in Calm   -999.0 mph 76 % 0 in
20:32 43.0 °F 36.6 °F 30.33 in Calm   -999.0 mph 78 % 0 in
20:47 42.1 °F 35.7 °F 30.33 in South 1.7 mph -999.0 mph 78 % 0 in
21:02 41.4 °F 35.1 °F 30.33 in South 1.1 mph -999.0 mph 78 % 0 in
21:18 40.5 °F 34.2 °F 30.33 in Calm   -999.0 mph 78 % 0 in
21:33 40.5 °F 34.2 °F 30.33 in South 2.2 mph -999.0 mph 78 % 0 in
21:48 39.6 °F 33.6 °F 30.33 in Calm   -999.0 mph 79 % 0 in
22:03 39.6 °F 33.9 °F 30.33 in South 1.7 mph -999.0 mph 80 % 0 in
22:19 38.5 °F 33.2 °F 30.33 in Calm   -999.0 mph 81 % 0 in
22:34 38.1 °F 33.4 °F 30.34 in Calm   -999.0 mph 83 % 0 in
22:49 38.3 °F 33.6 °F 30.34 in Calm   -999.0 mph 83 % 0 in
23:04 37.6 °F 32.9 °F 30.34 in Calm   -999.0 mph 83 % 0 in
23:19 37.8 °F 32.5 °F 30.33 in Calm   -999.0 mph 81 % 0 in
23:35 36.9 °F 31.9 °F 30.33 in Calm   -999.0 mph 82 % 0 in
23:50 36.9 °F 32.2 °F 30.33 in Calm   -999.0 mph 83 % 0 in
Big Bear CA Weather
Compliments of Weather Underground - 1.25 mb